星链-1867 (STARLINK-1867 )

导读 | 豆包AI

STARLINK-1867是美国SpaceX公司星链(Starlink)星座中的一颗卫星,于2020年11月25日发射入轨,是星链低轨互联网星座组网过程中部署的卫星之一。这类卫星旨在为全球提供高速低延迟互联网覆盖,尤其服务偏远地区与网络基础设施薄弱区域,是Starlink大规模星座建设的组成部分。

基本信息
目录编号:
47153
目录名称:
STARLINK-1867
国际标识:
2020-088AH
轨道中心:
EARTH
卫星名称:
星链-1867
卫星全名:
星链-1867 (STARLINK-1867 )
卫星状态:
已陨落 最后检测时间 2025-04-01
发射日期:
2020-11-25 UTC
国别 :
美国 (US)
星等 :
--
轨道信息
数据来源 国际轨道数据
星历时间: 2025-03-31T23:51:34+0800
轨道信息已过期347天
半长轴: 6528.866km
偏心率: 0.0011091
轨道倾角: 53.016°
近地点辐角 214.766°
升交点赤经 353.798°
平近点角 232.619°
近地点: 143.489km
远地点: 157.973km
周期: 87.502分钟
每日圈数: 16.45683
详细信息
固有亮度:
5
最大亮度:
2.5
卫星平台:
Starlink V1.0
覆盖范围:
全球
运营商:
太空探索技术公司
运营商所在国:
美国
制造商(研发单位):
太空探索技术公司
制造商所在国:
美国
使用方式:
暂无
卫星简介
星链(Starlink)计划是由太空探索技术公司(SpaceX)提出的一个巨型低轨卫星互联网星座项目,计划在2019年至2024年间在太空搭建由约1.2万颗卫星组成的“星链”网络,其中1584颗将部署在地球上空550千米处的近地轨道,并从2020年开始工作。该卫星仍在工作。